EHI
0 0 0 0 0 0 0 0 0 0 1 2 1 1 2 2 1 2 2 1 1 4 7 6 3 3 8 18 28 34 35 29 20 10 5 3 3 2 1 0 0 0 0 0 0 0 0 0 0
0 0 0 0 0 0 0 0 0 0 1 1 1 1 1 1 2 2 3 2 2 4 6 6 4 3 8 18 25 30 31 26 17 10 5 3 3 1 0 0 0 0 0 0 0 0 0 0 0
0 0 0 0 0 0 0 0 0 0 0 0 1 1 1 1 2 2 4 3 2 3 5 6 5 5 7 15 21 24 24 19 13 9 5 3 2 1 0 0 0 0 0 0 0 0 0 0 0
0 0 0 0 0 0 0 0 0 0 0 0 1 3 4 4 4 4 4 3 2 2 3 5 7 7 9 14 19 20 18 13 9 7 5 3 2 0 0 0 0 0 0 0 0 0 0 0 0
0 0 0 0 0 0 0 0 0 0 0 0 1 4 9 11 12 10 5 1 1 1 2 5 10 12 13 17 20 20 16 11 7 5 4 2 1 0 0 0 0 0 0 0 0 0 0 0 0
0 0 0 0 0 0 0 0 0 1 1 2 2 5 13 22 24 18 8 2 0 0 1 6 11 12 14 18 22 22 19 13 7 4 3 1 1 0 0 0 0 0 0 0 0 0 0 0 0
0 0 0 0 0 0 0 0 1 2 2 2 3 6 17 32 36 26 14 5 1 0 1 5 6 6 8 13 18 20 19 14 8 5 3 1 1 0 0 0 0 0 0 0 0 0 0 0 0
0 0 0 0 0 0 0 1 3 3 2 2 4 8 21 40 46 37 23 13 6 2 1 2 1 1 2 5 9 13 13 10 7 5 3 2 1 0 0 0 0 0 0 0 0 0 1 1 1
0 0 0 0 0 0 0 1 2 2 1 2 7 15 28 45 52 47 35 24 16 7 2 1 1 2 1 1 3 5 5 5 4 3 2 1 1 0 0 1 1 1 0 0 0 1 1 1 0
0 0 0 0 0 0 0 0 1 1 0 3 11 21 34 44 49 47 40 31 22 14 7 4 3 3 2 2 3 2 2 2 2 1 1 1 0 0 1 2 2 1 0 0 0 1 1 1 0
0 0 0 0 0 0 0 0 0 0 0 3 10 21 33 39 38 36 33 26 22 18 13 9 6 5 4 4 5 4 2 2 2 2 1 1 0 0 0 1 1 1 0 0 0 0 0 0 0
0 0 0 0 0 0 0 0 0 0 0 2 7 18 31 34 29 27 26 21 20 21 18 13 11 10 9 8 7 5 2 2 3 3 2 1 0 0 0 0 0 0 0 0 0 0 0 0 0
0 0 0 0 0 0 0 0 0 0 0 2 6 16 28 29 25 26 26 23 22 23 22 20 17 14 12 11 7 3 2 3 3 3 1 0 0 0 0 0 0 0 0 0 0 0 0 1 1
0 0 0 0 0 0 0 0 0 0 1 4 9 16 24 26 25 27 28 26 24 24 25 24 21 16 12 9 6 2 3 4 3 1 0 0 0 0 0 0 0 0 0 0 0 0 1 2 3
0 0 0 0 0 0 0 0 1 2 4 7 11 14 19 25 26 26 26 25 23 23 24 23 20 15 10 6 4 3 3 3 1 0 0 0 0 0 0 0 0 0 0 0 0 0 1 3 4
0 0 0 0 0 0 0 0 1 4 6 8 10 11 16 22 23 22 22 22 22 23 22 21 17 13 7 4 3 3 3 2 1 0 0 0 0 0 0 0 0 0 0 0 0 0 1 2 2
0 0 0 0 0 0 0 0 1 4 7 8 10 11 14 18 17 17 19 20 21 21 21 19 15 9 6 4 4 4 3 1 0 0 0 0 0 0 0 0 0 0 0 0 0 0 1 1 1
0 0 0 0 0 0 0 0 1 4 6 8 11 14 15 15 15 15 17 17 17 17 17 15 11 7 6 6 4 3 2 1 0 0 0 0 0 0 0 0 0 0 0 0 0 0 0 0 0
0 0 0 0 0 0 0 0 1 4 5 7 11 15 17 16 16 17 16 14 14 14 14 10 7 6 6 4 3 2 1 0 0 0 0 0 0 0 0 0 0 0 0 0 0 0 0 0 0
0 0 0 0 0 0 0 0 1 2 3 4 8 12 15 17 17 16 14 12 12 12 10 6 4 5 4 2 1 1 0 0 0 0 0 0 0 0 0 0 0 0 0 0 0 0 0 0 0
0 0 0 0 0 0 0 0 0 1 1 2 5 9 13 16 16 15 13 11 9 8 6 3 3 3 2 1 0 0 0 0 0 0 0 0 0 0 0 0 0 0 0 0 0 0 0 0 0
0 0 0 0 0 0 0 0 0 0 0 1 3 6 10 14 16 15 14 10 6 4 3 2 2 1 0 0 0 0 0 0 0 0 0 0 0 0 0 0 0 0 0 0 0 0 0 0 0
0 0 0 0 0 0 0 0 0 0 0 0 1 4 9 12 14 14 13 9 5 3 3 2 1 0 0 0 0 0 0 0 0 0 0 0 0 0 0 0 0 0 0 0 0 0 0 0 0
0 0 0 0 0 0 0 0 0 0 0 0 1 3 6 9 11 11 11 9 6 5 5 3 1 0 0 0 1 1 0 0 0 0 0 0 0 0 0 0 0 0 0 0 0 0 0 0 0
0 0 0 0 0 0 0 0 0 0 0 0 0 1 3 6 9 10 11 10 9 7 6 4 2 0 0 1 3 4 2 1 0 0 0 0 0 0 0 0 0 0 0 0 0 0 0 0 0
0 0 0 0 0 0 0 0 0 0 0 0 0 1 2 4 7 10 11 11 10 9 7 5 3 1 1 3 6 7 6 3 1 1 1 0 0 0 0 0 0 0 0 0 0 0 0 0 0
0 0 0 0 0 0 0 0 0 0 0 0 0 1 2 3 4 7 9 8 8 8 7 6 5 4 3 5 7 9 9 7 4 3 2 1 0 0 0 0 0 0 0 0 0 0 0 0 0
0 0 0 0 0 0 0 0 0 0 0 0 0 0 1 2 3 4 4 5 5 6 7 7 7 7 6 7 8 9 10 11 10 7 4 1 0 0 0 0 0 0 0 0 0 0 0 0 0
0 0 0 0 0 0 0 0 0 0 0 0 0 0 1 2 2 2 2 3 4 5 6 7 8 9 9 10 11 10 10 13 15 13 8 3 1 0 0 0 0 0 0 0 0 0 0 0 0
0 0 0 0 0 0 0 0 0 0 0 0 0 0 0 1 1 1 2 4 6 6 6 7 9 11 12 12 14 13 11 13 16 15 11 6 2 1 0 0 0 0 0 0 0 0 0 0 0
Wind_Speed
11 8 6 5 8 6 0 2 0 2 2 2 3 3 2 2 1 5 7 15 18 18 18 18 14 14 14 14 14 14 14 14 13 12 12 11 10 10 9 9 9 9 8 8 8 8 8 8 8
7 5 6 7 8 4 2 1 1 1 3 4 4 3 3 3 4 7 10 15 19 19 18 17 16 14 14 13 13 13 13 13 12 12 11 10 9 9 8 8 9 8 8 8 7 7 7 7 7
5 6 7 6 5 4 2 2 1 2 3 4 3 1 1 3 5 7 11 18 19 18 16 17 17 15 14 13 13 13 13 12 12 11 10 9 9 8 8 7 8 8 7 7 7 7 7 6 6
5 6 6 8 3 2 3 2 1 3 4 4 3 3 3 4 3 8 16 20 19 18 16 18 15 14 14 13 13 13 13 12 11 11 10 9 8 7 7 7 6 6 6 6 6 6 5 5 5
6 6 7 5 0 2 2 3 1 4 3 3 4 3 5 5 5 13 17 19 18 17 16 18 15 14 13 13 13 13 12 11 10 10 9 8 7 6 6 5 5 5 5 5 5 5 4 4 5
5 6 6 2 2 1 1 1 2 3 2 3 3 3 5 5 9 14 16 16 17 16 15 17 15 14 13 13 13 12 11 11 10 9 8 6 5 5 4 4 4 4 4 4 4 4 4 3 3
6 5 2 2 1 1 1 1 3 2 2 2 2 3 7 8 9 12 14 14 15 15 14 15 16 14 13 12 12 11 10 9 8 8 6 5 4 3 3 3 3 3 3 3 3 3 3 2 2
5 5 2 1 2 2 2 0 2 3 0 2 2 2 6 10 11 12 12 13 12 12 13 13 13 13 13 12 11 10 10 9 8 7 6 5 5 4 3 5 4 3 3 3 3 3 3 2 2
6 6 0 3 3 3 1 1 1 1 1 3 2 2 6 13 13 13 13 12 12 11 11 12 12 11 10 10 11 11 10 8 8 7 6 5 4 4 5 2 2 2 3 4 4 4 4 4 5
6 4 4 4 5 6 2 3 2 4 5 5 5 5 10 14 14 15 15 15 15 13 12 10 10 11 10 7 8 6 7 7 4 3 4 3 1 1 1 5 2 2 3 4 4 4 5 8 6
6 5 5 4 4 5 5 4 3 6 5 4 5 10 12 14 14 14 15 14 15 14 12 11 10 9 8 6 6 4 3 4 4 3 2 1 1 1 2 1 3 4 6 5 5 6 5 5 2
6 6 6 6 5 4 4 3 3 5 3 2 3 8 13 14 14 14 14 14 13 13 12 10 10 8 7 5 5 4 4 3 3 4 1 1 0 1 1 1 1 2 2 2 2 2 3 3 3
8 6 4 4 4 3 3 3 3 2 0 2 5 9 12 13 12 11 11 11 11 11 11 10 9 8 7 5 4 5 3 3 4 2 3 1 1 1 1 1 2 3 2 3 3 3 3 3 3
5 6 5 4 3 3 4 3 4 2 3 4 6 9 11 12 12 11 11 10 10 10 10 9 9 8 8 6 5 4 4 3 3 3 4 2 2 2 1 1 1 1 2 1 2 2 2 2 2
7 8 6 4 3 2 5 6 4 3 5 6 7 8 10 10 10 11 11 10 9 9 9 10 9 9 8 7 6 5 4 4 4 4 4 3 3 2 2 1 1 1 1 0 1 1 2 2 3
8 8 4 3 3 3 7 3 4 4 6 6 6 7 8 8 9 8 9 9 9 9 10 10 8 9 8 6 5 4 4 5 4 4 4 4 4 3 2 1 1 1 1 1 0 1 1 1 2
5 6 7 1 4 4 7 5 3 4 6 6 6 6 7 8 9 9 9 8 8 9 9 9 8 9 8 7 5 5 5 4 4 3 3 4 4 3 1 2 2 1 1 1 1 1 2 1 1
9 10 8 6 1 6 7 6 1 4 6 6 7 7 7 9 9 9 9 8 8 8 8 9 9 9 8 7 6 5 5 4 3 3 4 3 3 3 2 2 2 1 1 1 1 1 1 2 2
9 10 9 5 1 6 7 6 3 4 6 6 7 8 8 8 9 9 9 8 9 8 8 10 10 10 8 6 7 6 6 4 4 3 4 3 3 3 2 2 2 1 2 2 1 1 1 1 2
9 10 8 2 0 6 7 6 2 4 6 6 8 9 10 10 10 10 10 10 10 10 10 11 11 10 9 7 5 4 4 4 4 3 4 3 3 2 2 3 1 2 2 2 1 2 3 1 1
9 8 9 7 3 6 7 4 4 5 5 6 7 7 9 11 12 12 12 11 11 11 11 10 11 11 10 9 6 6 5 4 5 5 5 4 4 3 3 2 2 1 1 3 1 1 2 1 0
8 5 6 6 7 3 4 5 4 4 6 7 8 8 10 11 12 13 13 13 13 12 12 11 11 11 10 10 8 9 6 5 5 4 5 5 5 4 3 2 2 1 1 2 0 3 1 3 1
5 3 5 6 7 5 1 6 4 4 4 6 8 8 9 11 12 13 13 13 12 13 12 12 12 11 10 10 9 8 7 4 4 5 5 6 6 5 5 4 2 2 1 2 2 2 2 1 2
2 5 6 8 7 3 4 6 2 3 1 4 7 9 9 11 12 12 12 12 12 13 13 12 12 12 11 11 10 10 8 6 5 6 6 7 6 6 7 6 4 4 2 2 1 1 1 2 2
7 8 6 5 3 2 3 4 3 3 2 4 7 9 11 11 12 12 13 13 13 14 14 14 14 13 13 12 11 11 9 8 8 7 7 6 5 6 7 6 6 4 3 3 3 3 1 2 1
6 8 7 7 7 4 2 3 4 4 4 4 7 9 11 12 13 13 14 14 14 15 15 15 15 14 13 13 11 10 10 8 7 8 6 7 5 5 6 7 7 6 6 5 4 4 4 3 3
5 6 6 8 7 7 2 1 4 6 6 7 9 10 11 12 13 14 14 15 15 15 16 15 15 14 13 13 12 11 11 10 7 7 8 6 6 5 7 7 8 7 7 6 6 5 4 4 5
6 4 4 6 6 7 3 2 2 4 7 8 9 11 12 13 14 14 14 15 15 15 15 15 14 14 13 13 12 10 11 11 9 9 9 7 7 6 7 8 8 8 8 8 8 7 6 6 6
7 6 6 6 6 7 6 2 5 1 4 8 9 10 11 13 14 14 14 15 15 15 15 14 14 14 13 13 12 11 11 11 11 10 10 9 8 8 9 9 9 9 9 9 9 9 7 8 8
7 7 7 7 5 6 7 2 6 2 2 4 7 8 10 11 12 13 14 15 15 15 15 15 14 14 14 13 12 12 11 11 11 11 11 10 10 10 10 10 10 10 10 10 10 11 10 10 10
Wind_Direction
189 205 230 240 238 232 246 90 106 148 119 109 144 178 181 144 121 87 116 152 148 149 145 151 152 150 145 140 135 132 130 128 127 126 124 121 119 119 117 113 108 102 97 93 90 89 85 80 74
189 212 236 240 255 247 123 112 188 77 94 121 145 172 174 129 75 106 142 152 152 151 150 154 150 153 149 144 139 135 133 131 130 129 127 125 123 120 116 112 110 105 101 98 94 91 84 78 71
203 239 258 249 258 310 26 67 21 106 147 171 162 185 6 84 116 138 148 154 155 151 151 144 154 156 152 147 143 140 138 136 136 134 132 130 127 124 119 114 111 108 105 102 98 92 85 75 66
225 227 236 250 248 43 349 357 11 180 172 189 190 144 100 61 118 140 148 156 155 151 155 145 158 156 153 150 146 145 142 141 141 139 137 136 135 132 127 122 117 115 111 107 103 97 88 75 63
242 253 236 228 203 52 351 351 272 220 178 179 205 146 101 70 114 138 151 156 155 156 157 148 157 155 154 151 150 147 146 146 144 143 140 139 139 138 134 130 129 126 122 118 111 109 99 82 64
237 248 248 238 94 50 48 16 246 242 200 167 195 162 91 103 133 145 152 157 157 157 155 143 153 155 154 152 151 150 149 147 146 144 141 139 137 135 136 140 141 141 142 137 131 127 118 95 73
274 268 294 337 33 110 57 6 282 256 209 169 187 164 118 127 133 145 152 157 158 158 154 152 160 159 155 152 151 150 148 146 145 142 141 142 143 145 145 154 164 164 163 164 163 153 142 129 100
290 270 210 142 330 31 72 137 1 298 339 97 215 201 132 138 140 145 149 155 156 159 157 156 164 159 164 158 151 147 145 144 141 141 143 146 158 168 173 201 180 200 202 197 195 189 174 159 149
266 255 64 37 343 357 68 245 129 280 215 182 187 36 108 138 145 148 151 155 158 161 162 164 158 160 166 161 150 155 149 145 157 158 152 193 202 186 186 162 121 212 219 218 211 202 185 189 175
253 277 33 3 325 321 306 270 226 213 214 202 173 135 135 150 157 160 162 164 164 165 166 164 162 163 168 159 150 161 164 152 175 141 164 198 169 267 275 116 166 221 221 213 204 203 203 225 198
251 291 339 319 314 299 276 246 232 249 239 222 188 163 161 164 170 172 171 170 167 165 165 165 162 165 164 154 156 155 143 141 149 124 129 107 244 230 238 213 186 208 216 222 188 210 226 223 219
258 275 288 295 310 283 274 262 242 257 315 49 183 171 170 176 179 177 173 170 167 166 166 165 159 161 163 155 148 153 152 152 141 124 157 134 268 300 335 287 288 245 233 231 239 223 230 236 217
246 277 291 288 276 275 249 243 265 253 140 170 174 178 181 183 180 177 173 169 168 166 164 160 159 158 153 148 159 144 140 139 118 105 83 5 324 344 342 329 307 282 270 227 226 232 216 214 209
288 279 273 267 254 218 237 221 228 203 162 174 178 183 184 184 179 170 169 169 170 167 163 157 159 157 153 152 146 134 131 122 111 95 73 26 16 18 329 268 306 300 289 309 269 240 211 216 203
270 265 242 208 226 208 246 223 211 158 172 180 180 184 183 182 180 177 174 171 169 166 164 159 159 157 155 150 146 138 138 130 108 93 84 56 40 34 338 356 286 358 341 220 228 222 221 209 200
240 250 271 140 212 198 255 279 115 157 183 185 183 179 180 177 180 177 175 173 168 164 164 162 161 154 149 141 145 139 133 118 106 100 93 72 57 35 338 351 28 354 288 241 174 252 223 224 240
228 313 336 9 196 224 253 296 112 165 187 189 184 182 187 177 180 180 176 169 167 161 157 155 151 150 146 142 142 129 121 114 115 106 91 85 69 48 15 31 35 282 290 306 282 61 300 262 287
338 328 328 330 158 241 256 277 198 178 195 190 182 182 184 185 181 174 171 166 159 155 153 150 144 145 145 143 140 140 138 139 130 111 96 94 86 57 17 86 45 329 54 51 39 44 1 317 301
308 309 317 341 360 266 270 279 269 190 197 194 188 182 179 180 170 167 170 166 161 162 163 158 154 150 156 158 163 163 160 158 151 136 121 117 90 81 20 49 81 351 52 16 353 307 198 270 311
289 298 318 339 208 279 296 285 250 191 201 200 195 191 184 173 172 170 172 169 169 171 171 163 160 162 172 166 167 165 153 169 155 144 138 143 127 116 104 48 81 69 87 76 24 332 310 22 320
301 313 327 324 295 233 283 236 176 171 188 192 198 194 185 178 177 175 174 171 171 173 171 170 167 171 178 168 169 157 158 178 171 173 170 167 160 140 85 93 56 65 336 82 31 341 313 319 108
306 349 312 297 284 325 306 319 126 161 184 192 193 189 184 180 177 175 175 176 177 176 171 171 172 177 177 177 183 182 189 189 178 185 167 172 184 181 164 145 109 48 56 93 163 61 337 304 277
324 333 288 281 283 282 269 300 95 162 194 186 187 185 179 177 177 176 178 179 179 175 173 174 176 180 180 188 189 198 206 196 178 185 169 194 187 198 194 186 174 181 165 80 45 70 348 329 329
216 238 236 241 254 278 26 308 51 106 165 165 170 175 177 175 175 176 178 176 179 178 178 178 179 185 186 192 197 209 210 205 196 200 188 202 193 198 196 199 201 209 193 168 182 176 161 15 5
225 264 270 256 253 19 70 290 24 79 143 169 166 168 172 174 175 175 177 177 179 181 182 183 184 189 191 196 202 207 210 207 208 212 203 215 206 198 189 201 203 210 202 205 207 218 252 213 238
242 279 296 312 324 339 174 312 56 104 142 162 162 161 167 174 177 179 180 180 182 183 185 187 189 192 194 199 204 208 209 215 214 212 221 208 221 210 181 196 204 210 209 212 209 231 216 221 241
241 258 312 287 283 288 336 16 129 144 160 167 168 168 173 177 179 181 182 184 185 187 188 190 191 195 198 202 204 208 210 220 222 204 214 216 210 203 190 200 206 210 212 219 217 236 231 226 239
285 284 252 275 299 300 301 286 84 151 171 174 177 180 179 178 181 182 183 186 186 189 190 193 195 199 202 204 207 208 209 211 213 215 215 216 207 206 200 204 209 212 212 214 223 231 221 232 238
193 217 252 274 296 300 308 17 62 122 180 183 182 184 184 184 183 182 183 184 187 189 190 194 198 202 205 209 210 215 211 209 208 212 212 210 211 203 207 210 212 216 217 215 219 237 231 231 238
251 248 235 264 270 263 289 351 95 100 160 188 189 183 186 188 186 185 184 186 189 192 194 196 201 205 209 209 210 212 213 211 211 211 211 208 208 209 209 212 215 220 221 219 221 229 232 232 236